Regional Weather Roundup
Issued by NWS

Home | Current Version | Previous Version | Text Only | Print | Product List | Glossary Off
Versions: 1 2 3 4 5 6 7 8 9 10 11 12 13 14 15 16 17 18 19 20 21 22 23 24 25 26 27 28 29 30 31 32 33 34 35 36 37 38 39 40 41 42 43 44 45 46 47 48 49 50

000
ASUS43 KMPX 031910
RWRMN
WEATHER ROUNDUP FOR MINNESOTA
NATIONAL WEATHER SERVICE TWIN CITIES/CHANHASSEN MN
200 PM CDT THU SEP 03 2015


NOTE: "FAIR" INDICATES FEW OR NO CLOUDS BELOW 12,000 FEET WITH NO
SIGNIFICANT WEATHER AND/OR OBSTRUCTIONS TO VISIBILITY. N/A MEANS
CURRENT SKY AND/OR WEATHER CONDITIONS ARE NOT AVAILABLE.

MNZ060>063-068>070-032000-
   Twin Cities Metro

CITY           SKY/WX    TMP DP  RH WIND       PRES   REMARKS
TWIN CITIES    MOSUNNY   83  72  69 SE13      29.90S
ST PAUL        PTSUNNY   81  72  74 E12       29.90F
CRYSTAL        PTSUNNY   84  72  67 E9        29.89F
BLAINE         MOSUNNY   82  73  74 E10       29.90F
LAKEVILLE      MOSUNNY   82  75  78 E8        29.89F
EDEN PRAIRIE   MOSUNNY   85  73  67 SE12      29.88F HX  91
SOUTH ST PAUL  PTSUNNY   82  71  69 E8        29.90S
LAKE ELMO      FAIR      81  72  74 E10       29.92F
$$
MNZ001>005-007-008-013>017-022>024-027-028-032000-
   Northwest Minnesota

CITY           SKY/WX    TMP DP  RH WIND       PRES   REMARKS
BEMIDJI        SUNNY     81  68  64 SE14      29.87F
HALLOCK        SUNNY     91  72  52 S22G32    29.72F HX  98
ROSEAU         SUNNY     86  72  62 SE17      29.80F HX  92
WARROAD        SUNNY     84  72  65 SE14      29.82F
THIEF RVR FALL SUNNY     88  70  55 SE18G26   29.79F HX  92
CROOKSTON      SUNNY     90  72  55 S20G29    29.77S HX  96
FOSSTON        SUNNY     88  66  48 S15G21    29.83S HX  90
DETROIT LAKES  SUNNY     82  70  65 SE16G23   29.87S
MOORHEAD       SUNNY     90  72  55 SE20G29   29.78F HX  96
PARK RAPIDS    MOSUNNY   84  69  60 SE16      29.88F
MAHNOMEN       FAIR      83  71  66 S15G21    29.83S
$$
MNZ006-009>011-018-025>026-032000-
   North Central Minnesota

CITY           SKY/WX    TMP DP  RH WIND       PRES   REMARKS
BAUDETTE       SUNNY     83  65  54 SE14G22   29.86F
FLAG ISLAND    SUNNY     73  64  73 SE9       29.84F
INTL FALLS     SUNNY     81  63  54 SE14      29.91F
WASKISH        SUNNY     82  68  61 SE8G17    29.87F
BIG FORK       SUNNY     81  64  57 SE10      29.93F
LONGVILLE      SUNNY     81  66  61 SE12G17   29.91F
GRAND RAPIDS     N/A     79  63  57 SE13G18   29.95S
CRANE LAKE     SUNNY     79  63  57 SE6       29.97S
ORR            SUNNY     81  59  47 SE9       29.93S
COOK           SUNNY     79  63  57 SE10      29.97S
WALKER         FAIR      80  69  67 SE9       29.90S
$$
MNZ012-019>021-037-032000-
   Northeast Minnesota

CITY           SKY/WX    TMP DP  RH WIND       PRES   REMARKS
DULUTH         CLOUDY    65  63  93 E9        29.99S
ELY            SUNNY     79  59  50 SE8       29.99S
HIBBING        SUNNY     78  65  63 SE14G20   29.96F
EVELETH        SUNNY     77  63  61 SE7       29.98S
DULUTH HARBOR  CLOUDY    61  59  94 E10       29.98F
TWO HARBORS    SUNNY     73  66  78 E8        29.97F
SILVER BAY     SUNNY     72  61  68 E9        29.99S
GRAND MARAIS     N/A     64  54  69 E3        30.01S
G MARAIS ARPRT SUNNY     73  48  40 SE6       30.05S
$$
MNZ029>031-032-039>041-046>048-054>057-064-032000-
   West Central Minnesota

CITY           SKY/WX    TMP DP  RH WIND       PRES   REMARKS
FERGUS FALLS   SUNNY     84  72  65 SE16      29.81F
WHEATON        SUNNY     82  72  69 SE14      29.82F
MORRIS         SUNNY     88  73  62 SE14G21   29.83S HX  96
ALEXANDRIA     SUNNY     82  73  74 SE16      29.89S
ELBOW LAKE     FAIR      82  73  72 SE15      29.84S HAZE
WADENA         MOSUNNY   81  70  69 SE16      29.88S
GLENWOOD       SUNNY     84  73  70 E14       29.88F HX  91
APPLETON       SUNNY     88  72  58 SE13      29.82F HX  94
BENSON         SUNNY     86  72  62 SE10      29.84F HX  92
ORTONVILLE     SUNNY     84  72  65 SE9       29.82F
MADISON        SUNNY     86  72  62 SE10      29.82F HX  92
WILLMAR        FAIR      84  75  74 E14       29.87F HX  92
$$
MNZ033>034-036-042>043-049>051-058-059-032000-
   Central Minnesota

CITY           SKY/WX    TMP DP  RH WIND       PRES   REMARKS
ST CLOUD       MOSUNNY   81  72  74 SE10G18   29.89F
SAUK CENTRE    MOCLDY    82  73  76 E9        29.89S
PAYNESVILLE    SUNNY     83  72  70 E12       29.89S
AITKIN         SUNNY     81  68  65 SE10      29.92F
PINE RIVER     SUNNY     81  70  69 SE16      29.94F
BRAINERD       MOSUNNY   80  68  66 SE9G17    29.92F
STAPLES        PTSUNNY   81  70  69 SE8       29.89F
LONG PRAIRIE   PTSUNNY   81  72  74 SE12      29.90S
LITTLE FALLS   PTSUNNY   81  68  65 E9        29.90F
LITCHFIELD     SUNNY     84  75  74 SE10      29.88S HX  92
BUFFALO        MOSUNNY   84  71  65 E8        29.90S
MAPLE LAKE     MOSUNNY   84  75  74 E7        29.90S HX  91
$$
MNZ037-044-045-052-053-032000-
   East Central Minnesota

CITY           SKY/WX    TMP DP  RH WIND       PRES   REMARKS
PRINCETON      MOSUNNY   82  72  69 E5        29.91F
MORA           MOSUNNY   79  68  69 E8        29.94F
CAMBRIDGE      PTSUNNY   84  70  61 SE8       29.90F
RUSH CITY      SUNNY     82  68  64 SE6       29.92F
MOOSE LAKE     SUNNY     73  64  73 E3        29.94F
HINCKLEY       FAIR      79  68  69 E8        29.94S
CLOQUET        CLOUDY    66  61  82 E7        29.98F
MCGREGOR       SUNNY     77  64  65 E9        29.95S
$$
MNZ071>073-080-081-089-090-097-098-032000-
   Southwest Minnesota

CITY           SKY/WX    TMP DP  RH WIND       PRES   REMARKS
MONTEVIDEO     SUNNY     90  73  58 S12       29.85F HX  98
GRANITE FALLS  SUNNY     86  72  63 E10G17    29.85F HX  92
CANBY          SUNNY     88  73  60 SE10      29.83F HX  95
MARSHALL       SUNNY     88  72  58 SE14      29.85S HX  94
REDWOOD FALLS  SUNNY     87  74  64 E10       29.84F HX  95
OLIVIA         SUNNY     86  72  62 SE12      29.85F HX  92
PIPESTONE      SUNNY     86  70  58 SE13      29.85F HX  90
WINDOM         SUNNY     88  72  58 SE14      29.86F HX  94
WORTHINGTON    SUNNY     84  72  65 SE13G18   29.86F
JACKSON        SUNNY     86  73  66 SE10      29.88S HX  93
TRACY          SUNNY     88  75  64 SE14      29.85F HX  98
SLAYTON        SUNNY     85  73  65 SE9       29.87S HX  92
$$
MNZ065>067-074>077-082>085-091>093-032000-
   South Central Minnesota

CITY           SKY/WX    TMP DP  RH WIND       PRES   REMARKS
MANKATO        SUNNY     86  73  66 E9        29.87F HX  93
NEW ULM        SUNNY     86  73  66 SE8G16    29.86S HX  93
ST JAMES       SUNNY     88  75  66 SE10      29.86F HX  97
FAIRMONT       SUNNY     86  70  58 SE14      29.86F HX  90
GLENCOE        SUNNY     87  76  69 E10G16    29.87F HX  97
FARIBAULT      SUNNY     84  75  74 E7        29.89F HX  92
OWATONNA       SUNNY     88  73  62 E8        29.89F HX  96
WASECA         SUNNY     84  72  65 E7        29.89F
ALBERT LEA     SUNNY     86  73  66 SE8       29.89S HX  93
$$
MNZ078>079-086>088-094>096-032000-
   Southeast Minnesota

CITY           SKY/WX    TMP DP  RH WIND       PRES   REMARKS
ROCHESTER      SUNNY     85  74  69 E8        29.92F HX  92
RED WING       CLOUDY    79  70  73 E9        29.91S
STANTON        MOSUNNY   85  74  68 E7        29.88F HX  93
DODGE CENTER   SUNNY     84  73  70 SE5       29.91S HX  91
WINONA         MOSUNNY   86  72  62 E7        29.91F HAZE    HX  92
AUSTIN         SUNNY     86  73  66 SE7       29.90S HX  93
PRESTON        MOSUNNY   85  72  64 SE9       29.92F HX  90
$$
ABBREVIATIONS USED IN REMARKS
   TC - TEMPERATURES IN CELSIUS
  WCI - WIND CHILL INDEX
   HX - HEAT INDEX
  VSB - VISIBILITY
$$



USA.gov is the U.S. government's official web portal to all federal, state and local government web resources and services.